TimeMDT,TemperatureF,Dew PointF,Humidity,Sea Level PressureIn,VisibilityMPH,Wind Direction,Wind SpeedMPH,Gust SpeedMPH,PrecipitationIn,Events,Conditions,WindDirDegrees,DateUTC
12:53 AM,62.1,51.1,67,29.76,10.0,ENE,12.7,-,N/A,,Partly Cloudy,70,2013-06-13 06:53:00
1:53 AM,62.1,51.1,67,29.80,10.0,WSW,8.1,-,N/A,,Mostly Cloudy,240,2013-06-13 07:53:00
2:53 AM,61.0,51.1,70,29.79,10.0,West,9.2,-,N/A,,Mostly Cloudy,260,2013-06-13 08:53:00
3:53 AM,55.9,44.1,64,29.81,10.0,West,12.7,21.9,N/A,,Clear,270,2013-06-13 09:53:00
4:53 AM,55.0,39.9,57,29.84,10.0,West,8.1,16.1,N/A,,Clear,270,2013-06-13 10:53:00
5:53 AM,53.1,37.0,55,29.87,10.0,West,13.8,19.6,N/A,,Clear,270,2013-06-13 11:53:00
6:53 AM,53.1,37.9,57,29.86,10.0,West,10.4,-,N/A,,Clear,260,2013-06-13 12:53:00
7:53 AM,54.0,37.9,55,29.89,10.0,West,13.8,24.2,N/A,,Clear,270,2013-06-13 13:53:00
8:53 AM,55.0,39.0,55,29.91,10.0,West,13.8,20.7,N/A,,Clear,270,2013-06-13 14:53:00
9:53 AM,59.0,41.0,51,29.92,10.0,WSW,15.0,21.9,N/A,,Clear,250,2013-06-13 15:53:00
10:53 AM,64.0,42.1,45,29.90,10.0,West,17.3,24.2,N/A,,Clear,260,2013-06-13 16:53:00
11:53 AM,64.9,44.1,47,29.91,10.0,West,16.1,23.0,N/A,,Clear,270,2013-06-13 17:53:00
12:53 PM,66.0,41.0,40,29.90,10.0,West,13.8,25.3,N/A,,Clear,260,2013-06-13 18:53:00
1:53 PM,69.1,41.0,36,29.88,10.0,West,13.8,-,N/A,,Clear,260,2013-06-13 19:53:00
2:53 PM,70.0,39.0,32,29.88,10.0,West,11.5,21.9,N/A,,Clear,280,2013-06-13 20:53:00
3:53 PM,70.0,36.0,29,29.86,10.0,West,17.3,26.5,N/A,,Clear,270,2013-06-13 21:53:00
4:53 PM,66.9,36.0,32,29.90,10.0,West,12.7,24.2,N/A,,Scattered Clouds,280,2013-06-13 22:53:00
5:53 PM,63.0,36.0,37,29.92,10.0,West,13.8,-,N/A,,Mostly Cloudy,260,2013-06-13 23:53:00
6:53 PM,64.0,37.0,37,29.91,10.0,WNW,10.4,-,N/A,,Scattered Clouds,290,2013-06-14 00:53:00
7:53 PM,62.1,37.0,39,29.93,10.0,West,9.2,-,N/A,,Clear,260,2013-06-14 01:53:00
8:53 PM,60.1,36.0,41,29.95,10.0,West,9.2,-,N/A,,Clear,260,2013-06-14 02:53:00
9:53 PM,57.0,34.0,42,29.99,10.0,West,11.5,-,N/A,,Clear,260,2013-06-14 03:53:00
10:53 PM,54.0,36.0,51,30.02,10.0,West,16.1,21.9,N/A,,Clear,270,2013-06-14 04:53:00
11:53 PM,51.1,35.1,54,30.04,10.0,West,10.4,17.3,N/A,,Clear,270,2013-06-14 05:53:00